Weather History for Farmington, MO

Change the Weather History Date:

Monday, December 24, 2012

  Actual Average Record
Temperature  
Mean Temperature 32 °F -  
Max Temperature 42 °F 39 °F 50 °F (2006)
Min Temperature 23 °F 23 °F 0 °F (2004)
Degree Days  
Heating Degree Days 32    
Moisture  
Dew Point 25 °F    
Average Humidity 71    
Maximum Humidity 87    
Minimum Humidity 49    
Precipitation  
Precipitation 0.00 in - - ()
Sea Level Pressure  
Sea Level Pressure 29.94 in    
Wind  
Wind Speed 6 mph (NNW)    
Max Wind Speed 18 mph    
Max Gust Speed 23 mph    
Visibility 8 miles    
Events      
Averages and records for this station are not official NWS values.
T = Trace of Precipitation, MM = Missing Value Source: NWS Daily Summary

Daily Weather History Graph

Daily Weather History Graph

Search for Another Location

Airport:

Trip Planner

Search our weather history database for the weather conditions in past years. The results will help you decide how hot, cold, wet, or windy it might be!

Date:

Astronomy

Dec. 24, 2012 Rise Set
Actual Time 7:15 AM CST 4:48 PM CST
Civil Twilight 6:45 AM CST 5:17 PM CST
Nautical Twilight 6:12 AM CST 5:50 PM CST
Astronomical Twilight 5:40 AM CST 6:22 PM CST
Moon 2:14 PM CST (12/24) 3:55 AM CST (12/24)
Length of Visible Light 10h 32m
Length of Day
9h 33m
Waxing Gibbous, 88% of the Moon is Illuminated
Dec 24
Waxing Gibbous
Dec 28
Full
Jan 4
Last Quarter
Jan 11
New
Jan 18
First Quarter

Hourly Weather History & Observations

Time (CST) Temp. Windchill Dew Point Humidity Pressure Visibility Wind Dir Wind Speed Gust Speed Precip Events Conditions
12:15 AM 42.8 °F - 33.8 °F 70% 29.84 in 10.0 mi Calm Calm - N/A   Overcast
12:35 AM 42.8 °F - 33.8 °F 70% 29.83 in 10.0 mi Calm Calm - N/A   Overcast
12:55 AM 42.8 °F - 33.8 °F 70% 29.82 in 10.0 mi Calm Calm - N/A   Overcast
1:15 AM 42.8 °F - 32.0 °F 66% 29.82 in 10.0 mi Calm Calm - N/A   Overcast
1:35 AM 42.8 °F - 32.0 °F 66% 29.82 in 10.0 mi Calm Calm - N/A   Overcast
1:55 AM 41.0 °F - 33.8 °F 76% 29.82 in 10.0 mi Calm Calm - N/A   Overcast
2:15 AM 42.8 °F - 33.8 °F 70% 29.82 in 10.0 mi Calm Calm - N/A   Overcast
2:35 AM 41.0 °F 39.0 °F 33.8 °F 76% 29.82 in 10.0 mi NNW 3.5 mph - N/A   Overcast
2:55 AM 42.8 °F - 33.8 °F 70% 29.80 in 10.0 mi Calm Calm - N/A   Overcast
3:15 AM 41.0 °F - 33.8 °F 76% 29.80 in 10.0 mi Calm Calm - N/A   Overcast
3:35 AM 41.0 °F 36.4 °F 33.8 °F 76% 29.80 in 10.0 mi NNW 6.9 mph - N/A   Overcast
3:55 AM 39.2 °F 35.0 °F 33.8 °F 81% 29.80 in 10.0 mi NNW 5.8 mph - N/A   Overcast
4:15 AM 39.2 °F 35.0 °F 32.0 °F 75% 29.81 in 10.0 mi NW 5.8 mph - N/A   Overcast
4:35 AM 39.2 °F 35.0 °F 32.0 °F 75% 29.81 in 10.0 mi WNW 5.8 mph - N/A   Overcast
4:55 AM 37.4 °F 30.8 °F 30.2 °F 75% 29.82 in 10.0 mi NW 9.2 mph - N/A   Overcast
5:15 AM 37.4 °F 32.1 °F 30.2 °F 75% 29.83 in 10.0 mi NW 6.9 mph - N/A   Overcast
5:35 AM 37.4 °F 31.4 °F 30.2 °F 75% 29.85 in 10.0 mi WNW 8.1 mph - N/A   Overcast
5:55 AM 35.6 °F 29.2 °F 30.2 °F 81% 29.85 in 10.0 mi WNW 8.1 mph - N/A   Mostly Cloudy
6:15 AM 35.6 °F 28.6 °F 28.4 °F 75% 29.85 in 10.0 mi WNW 9.2 mph - N/A   Partly Cloudy
6:35 AM 33.8 °F 26.4 °F 28.4 °F 81% 29.86 in 10.0 mi WNW 9.2 mph - N/A   Clear
6:55 AM 33.8 °F 24.3 °F 28.4 °F 81% 29.87 in 9.0 mi WNW 13.8 mph 18.4 mph N/A   Scattered Clouds
7:15 AM 33.8 °F 25.3 °F 28.4 °F 81% 29.89 in 7.0 mi WNW 11.5 mph - N/A   Partly Cloudy
7:35 AM 32.0 °F 23.0 °F 28.4 °F 87% 29.90 in 7.0 mi WNW 11.5 mph - N/A   Partly Cloudy
7:55 AM 32.0 °F 23.0 °F 28.4 °F 87% 29.91 in 6.0 mi WNW 11.5 mph - N/A   Partly Cloudy
8:15 AM 32.0 °F 23.0 °F 28.4 °F 87% 29.93 in 6.0 mi WNW 11.5 mph 17.3 mph N/A   Mostly Cloudy
8:35 AM 33.8 °F 24.3 °F 28.4 °F 81% 29.94 in 7.0 mi NW 13.8 mph 20.7 mph N/A   Mostly Cloudy
9:15 AM 33.8 °F 25.8 °F 26.6 °F 75% 29.94 in 7.0 mi NW 10.4 mph 23.0 mph N/A   Mostly Cloudy
9:35 AM 33.8 °F 22.8 °F 26.6 °F 75% 29.95 in 7.0 mi NW 18.4 mph 23.0 mph N/A   Partly Cloudy
9:55 AM 33.8 °F 23.9 °F 26.6 °F 75% 29.96 in 8.0 mi WNW 15.0 mph 19.6 mph N/A   Clear
10:15 AM 33.8 °F 23.9 °F 26.6 °F 75% 29.96 in 8.0 mi WNW 15.0 mph 18.4 mph N/A   Clear
10:35 AM 33.8 °F 25.3 °F 26.6 °F 75% 29.96 in 9.0 mi NW 11.5 mph - N/A   Clear
10:55 AM 35.6 °F 29.2 °F 24.8 °F 65% 29.95 in 10.0 mi NW 8.1 mph - N/A   Clear
11:15 AM 37.4 °F 30.8 °F 26.6 °F 65% 29.94 in 10.0 mi WNW 9.2 mph - N/A   Clear
11:35 AM 37.4 °F 30.8 °F 24.8 °F 60% 29.94 in 10.0 mi WNW 9.2 mph - N/A   Clear
11:55 AM 39.2 °F 32.0 °F 26.6 °F 61% 29.94 in 10.0 mi WNW 11.5 mph - N/A   Clear
12:15 PM 39.2 °F 31.2 °F 24.8 °F 56% 29.94 in 10.0 mi WNW 13.8 mph - N/A   Clear
12:35 PM 39.2 °F 31.2 °F 24.8 °F 56% 29.94 in 10.0 mi NW 13.8 mph - N/A   Clear
12:55 PM 39.2 °F 33.0 °F 24.8 °F 56% 29.92 in 10.0 mi NNW 9.2 mph - N/A   Clear
1:15 PM 41.0 °F 36.4 °F 24.8 °F 53% 29.91 in 10.0 mi NNW 6.9 mph - N/A   Clear
1:35 PM 41.0 °F 35.2 °F 24.8 °F 53% 29.92 in 10.0 mi NNW 9.2 mph - N/A   Clear
1:55 PM 39.2 °F 32.5 °F 23.0 °F 52% 29.93 in 10.0 mi NW 10.4 mph - N/A   Clear
2:15 PM 41.0 °F 37.1 °F 23.0 °F 49% 29.93 in 10.0 mi NNW 5.8 mph - N/A   Clear
2:35 PM 39.2 °F 33.0 °F 23.0 °F 52% 29.93 in 10.0 mi NNW 9.2 mph - N/A   Clear
2:55 PM 39.2 °F 33.6 °F 23.0 °F 52% 29.94 in 10.0 mi NNW 8.1 mph - N/A   Clear
3:15 PM 39.2 °F 33.0 °F 23.0 °F 52% 29.94 in 10.0 mi North 9.2 mph - N/A   Clear
3:35 PM 37.4 °F 32.1 °F 23.0 °F 56% 29.95 in 10.0 mi North 6.9 mph - N/A   Clear
3:55 PM 37.4 °F 31.4 °F 23.0 °F 56% 29.97 in 10.0 mi North 8.1 mph - N/A   Clear
4:15 PM 37.4 °F 32.1 °F 23.0 °F 56% 29.97 in 10.0 mi NNW 6.9 mph - N/A   Clear
4:35 PM 35.6 °F 29.2 °F 21.2 °F 56% 29.98 in 10.0 mi North 8.1 mph - N/A   Clear
4:55 PM 33.8 °F 26.4 °F 21.2 °F 60% 29.98 in 9.0 mi North 9.2 mph - N/A   Clear
5:15 PM 30.2 °F 21.9 °F 21.2 °F 69% 29.99 in 10.0 mi North 9.2 mph - N/A   Clear
5:35 PM 28.4 °F 18.5 °F 19.4 °F 69% 30.01 in 7.0 mi NNW 11.5 mph 17.3 mph N/A   Clear
5:55 PM 26.6 °F 20.0 °F 19.4 °F 74% 30.02 in 7.0 mi NNW 5.8 mph - N/A   Clear
6:15 PM 26.6 °F 18.2 °F 19.4 °F 74% 30.04 in 6.0 mi NNW 8.1 mph - N/A   Clear
6:35 PM 26.6 °F 16.8 °F 19.4 °F 74% 30.05 in 6.0 mi NNW 10.4 mph 17.3 mph N/A   Mostly Cloudy
6:55 PM 26.6 °F 16.8 °F 19.4 °F 74% 30.06 in 6.0 mi NNW 10.4 mph - N/A   Overcast
7:15 PM 26.6 °F 19.1 °F 19.4 °F 74% 30.07 in 5.0 mi NNW 6.9 mph - N/A   Overcast
7:35 PM 26.6 °F 16.8 °F 19.4 °F 74% 30.07 in 6.0 mi NNW 10.4 mph 16.1 mph N/A   Overcast
7:55 PM 26.6 °F 17.5 °F 19.4 °F 74% 30.07 in 5.0 mi NNW 9.2 mph - N/A   Overcast
8:15 PM 24.8 °F 14.6 °F 19.4 °F 80% 30.08 in 5.0 mi North 10.4 mph 16.1 mph N/A   Overcast
8:35 PM 24.8 °F 14.6 °F 19.4 °F 80% 30.08 in 5.0 mi NNW 10.4 mph - N/A   Overcast
8:55 PM 24.8 °F 15.3 °F 19.4 °F 80% 30.08 in 5.0 mi North 9.2 mph - N/A   Overcast
9:15 PM 24.8 °F 16.1 °F 17.6 °F 74% 30.08 in 5.0 mi NNW 8.1 mph - N/A   Overcast
9:35 PM 24.8 °F 15.3 °F 17.6 °F 74% 30.09 in 6.0 mi North 9.2 mph - N/A   Overcast
9:55 PM 24.8 °F 14.0 °F 17.6 °F 74% 30.09 in 6.0 mi NNE 11.5 mph - N/A   Overcast
10:15 PM 23.0 °F 13.9 °F 17.6 °F 80% 30.10 in 6.0 mi North 8.1 mph - N/A   Overcast
10:35 PM 23.0 °F 14.7 °F 17.6 °F 80% 30.10 in 6.0 mi NNE 6.9 mph - N/A   Overcast
10:55 PM 23.0 °F 13.9 °F 17.6 °F 80% 30.10 in 6.0 mi NNE 8.1 mph - N/A   Overcast
11:15 PM 23.0 °F 13.9 °F 17.6 °F 80% 30.10 in 5.0 mi NNE 8.1 mph - N/A   Overcast
11:35 PM 24.8 °F 16.1 °F 19.4 °F 80% 30.10 in 5.0 mi North 8.1 mph - N/A   Overcast
11:55 PM 24.8 °F 16.1 °F 19.4 °F 80% 30.10 in 6.0 mi North 8.1 mph - N/A   Overcast